Current weather by "City, St" or "zip code"  
 

Current Conditions: Bloomington/Normal, Central Illinois Regional Airport at Bloomington-Normal, IL

Overcast


51.0 F

Last Updated on Oct 21 2021, 12:56 pm CDT
Humidity: 71%
Wind Speed: W 19.6 G 24.2 mph
Barometer 29.99 in
Dewpoint: 42.1 F
Visibility: 10.00 mi
Precip: --
Heat Index: NA
Wind Chill: 45 F
Current conditions at:

Bloomington/Normal, Central Illinois Regional Airport at Bloomington-Normal, IL (KBMI)

Lat: 40.47694 Lon: 88.91583

Local Radar Image active severe weather and emergency alerts image image weather storm and storm spotter reports image weather observation monitoring service image
Local
Radar
Active
Alerts
Storm Reports Obs
Monitoring

Sign-up For Email & Text Message Weather Alert Notification Services



Advertise Here

Observation History for Bloomington/Normal, Central Illinois Regional Airport at Bloomington-Normal, IL


Time Wind
(mph)
Vis
(mi)
Weather Precip (in) Temperature (F) Relative
Humidity
Wind
Chill
(F)
Heat
Index
(F)
Pressure
Air Dwpt altimeter
(in)
sea level
(mb)
Rmks
12:56 pm CDT W 19.6 G 24.2 10.00 Overcast -- 51.0 42.1 71% 45 NA 29.99 1015.2
11:56 am CDT W 16.1 G 24.2 10.00 Overcast -- 50.0 41.0 71% 44 NA 29.99 1015.0
10:56 am CDT W 17.3 10.00 Overcast -- 50.0 41.0 71% 44 NA 29.98 1014.9
9:56 am CDT W 18.4 G 24.2 10.00 Overcast -- 49.0 41.0 74% 43 NA 29.96 1014.2
8:56 am CDT W 13.8 G 21.9 10.00 Overcast -- 50.0 44.1 80% 45 NA 29.94 1013.4
7:56 am CDT W 15.0 10.00 Overcast -- 49.0 45.0 86% 43 NA 29.93 1013.1
6:56 am CDT SW 12.7 G 18.4 10.00 Overcast -- 50.0 45.0 83% 45 NA 29.92 1012.6
5:56 am CDT W 13.8 G 19.6 10.00 Mostly Cloudy -- 50.0 44.1 80% 45 NA 29.92 1013.0
4:56 am CDT SW 9.2 10.00 Fair -- 50.0 45.0 83% 46 NA 29.92 1012.7
3:56 am CDT W 10.4 10.00 Fair -- 53.0 44.1 72% 50 NA 29.92 1012.5
2:56 am CDT W 15.0 10.00 Partly Cloudy -- 55.0 46.0 72% 51 NA 29.92 1012.6
1:56 am CDT W 11.5 10.00 Mostly Cloudy -- 58.0 48.9 72% 56 NA 29.92 1012.4
12:56 am CDT W 13.8 10.00 Overcast -- 63.0 57.0 81% 61 NA 29.91 1012.2
11:56 pm CDT SW 10.4 10.00 Overcast Trace 65.0 61.0 87% NA NA 29.91 1012.2
10:56 pm CDT SW 15.0 10.00 Overcast Trace 65.0 59.0 81% NA NA 29.91 1012.4
9:56 pm CDT SW 9.2 10.00 Light Rain Trace 66.0 57.0 73% NA NA 29.93 1013.2
8:56 pm CDT SW 16.1 10.00 Overcast -- 68.0 55.9 65% NA NA 29.92 1012.8
7:56 pm CDT SW 11.5 10.00 Overcast -- 67.0 57.0 71% NA NA 29.93 1013.1
6:56 pm CDT SW 13.8 10.00 Partly Cloudy -- 68.0 57.0 68% NA NA 29.94 1013.3
5:56 pm CDT SW 13.8 10.00 Fair -- 69.0 55.9 63% NA NA 29.93 1013.4
4:56 pm CDT S 19.6 G 23.0 10.00 Light Rain Trace 72.0 55.9 57% NA NA 29.92 1012.9
3:56 pm CDT S 20.7 G 28.8 10.00 Thunderstorm in Vicinity and Breezy -- 74.0 52.0 46% NA NA 29.95 1013.5
2:56 pm CDT S 18.4 G 24.2 10.00 Fair -- 76.0 52.0 43% NA NA 29.96 1014.1
1:56 pm CDT S 15.0 G 21.9 10.00 Fair -- 74.0 52.0 46% NA NA 29.99 1015.0

Regional Weather Observation


Peoria - General Downing-Peoria International Airport, IL (KPIA)

Overcast
51.0 F

Pontiac Municipal Airport, IL (KPNT)

Overcast
52.0 F

Logan County Airport, IL (KAAA)

Overcast
52.0 F

Marshall County Airport, IL (KC75)

Overcast
51.0 F

Rantoul National Aviation Center Airport, IL (KTIP)

Overcast
52.0 F

University of Illinois - Willard, IL (KCMI)

Overcast
52.0 F

Advertise Here


Advertise Here